Location: Narrabri
(30.3170°S, 149.7830°E)
Time: 22:45:00
(UTC+11:00)

ISS - Visible Passes

Search period start: 22 January 2018 00:00
Search period end: 01 February 2018 00:00
Orbit: 402 x 407 km, 51.6° (Epoch: 22 January)

Date Brightness Start Highest point End Pass type
(mag) Time Alt. Az. Time Alt. Az. Time Alt. Az.
27 Jan -1.1 05:33:49 10° NNE 05:35:32 14° NE 05:37:16 10° E visible
29 Jan -2.7 05:24:33 14° NNW 05:27:02 39° NE 05:30:11 10° ESE visible
30 Jan -1.6 04:34:37 18° NE 04:34:48 18° NE 04:37:07 10° E visible
31 Jan -3.7 05:17:16 31° WNW 05:18:38 61° SW 05:21:57 10° SE visible
